User: anonymous
Location: Fort Wayne
(41.1310°N, 85.1290°W)
Time: 08:14:23
(UTC-04:00)
Language:

Cosmos 1000 Rocket - Orbit

View from above orbital plane
View from above orbital plane
View from above satellite
View from above satellite

Ground track
Ground track

The orbit data is extracted from the following two-line orbital elements,

1 10777U 78034B   14273.46222281  .00000199  00000-0  18440-3 0  3621
2 10777 082.9411 247.4037 0027659 093.5029 055.9210 13.77308101834001
Epoch (UTC): 30 September 2014 11:05:36
Eccentricity: 0.0027659
inclination: 82.9411°
perigee height: 953 km
apogee height: 994 km
right ascension of ascending node: 247.4037°
argument of perigee: 93.5029°
revolutions per day: 13.77308101
mean anomaly at epoch: 55.9210°
orbit number at epoch: 83400

The dashed part of the orbit path shows where the satellite is in the earth's shadow,  

DLR